TimeCST,TemperatureF,Dew PointF,Humidity,Sea Level PressureIn,VisibilityMPH,Wind Direction,Wind SpeedMPH,Gust SpeedMPH,PrecipitationIn,Events,Conditions,WindDirDegrees,DateUTC
12:53 AM,30.0,12.9,49,30.18,10.0,South,12.7,-,N/A,,Clear,190,2012-12-12 06:53:00
1:53 AM,30.0,12.0,47,30.17,10.0,South,13.8,-,N/A,,Clear,190,2012-12-12 07:53:00
2:53 AM,26.1,10.9,53,30.17,10.0,South,10.4,-,N/A,,Clear,190,2012-12-12 08:53:00
3:53 AM,26.1,10.9,53,30.17,10.0,South,12.7,-,N/A,,Clear,190,2012-12-12 09:53:00
4:53 AM,27.0,10.9,51,30.16,10.0,South,13.8,-,N/A,,Clear,190,2012-12-12 10:53:00
5:53 AM,28.0,10.9,49,30.17,10.0,South,15.0,-,N/A,,Clear,180,2012-12-12 11:53:00
6:53 AM,28.0,10.9,49,30.19,10.0,South,15.0,-,N/A,,Clear,170,2012-12-12 12:53:00
7:53 AM,28.0,10.9,49,30.20,10.0,South,15.0,-,N/A,,Clear,170,2012-12-12 13:53:00
8:53 AM,33.1,12.0,42,30.20,10.0,South,17.3,21.9,N/A,,Clear,170,2012-12-12 14:53:00
9:53 AM,37.0,12.9,37,30.20,10.0,South,19.6,-,N/A,,Clear,180,2012-12-12 15:53:00
10:53 AM,42.1,14.0,32,30.19,10.0,South,20.7,-,N/A,,Clear,180,2012-12-12 16:53:00
11:53 AM,46.9,15.1,28,30.15,10.0,South,26.5,-,N/A,,Clear,170,2012-12-12 17:53:00
12:53 PM,50.0,16.0,26,30.12,10.0,South,23.0,-,N/A,,Clear,180,2012-12-12 18:53:00
1:53 PM,53.1,16.0,23,30.07,10.0,South,25.3,35.7,N/A,,Clear,170,2012-12-12 19:53:00
2:53 PM,54.0,15.1,22,30.06,10.0,South,27.6,33.4,N/A,,Clear,170,2012-12-12 20:53:00
3:53 PM,54.0,16.0,22,30.07,10.0,South,25.3,29.9,N/A,,Clear,180,2012-12-12 21:53:00
4:53 PM,52.0,16.0,24,30.06,10.0,SSE,16.1,24.2,N/A,,Clear,160,2012-12-12 22:53:00
5:53 PM,48.9,17.1,28,30.07,10.0,SSE,19.6,-,N/A,,Clear,160,2012-12-12 23:53:00
6:53 PM,46.9,17.1,30,30.08,10.0,SSE,20.7,-,N/A,,Clear,160,2012-12-13 00:53:00
7:53 PM,44.1,17.1,34,30.10,10.0,SSE,17.3,-,N/A,,Clear,150,2012-12-13 01:53:00
8:53 PM,43.0,17.1,35,30.10,10.0,SSE,18.4,-,N/A,,Clear,160,2012-12-13 02:53:00
9:53 PM,42.1,18.0,38,30.10,10.0,SSE,17.3,-,N/A,,Clear,160,2012-12-13 03:53:00
10:53 PM,41.0,18.0,40,30.11,10.0,SSE,19.6,-,N/A,,Clear,160,2012-12-13 04:53:00
11:53 PM,39.9,18.0,41,30.10,10.0,South,18.4,-,N/A,,Clear,170,2012-12-13 05:53:00